<?xml version="1.0" encoding="UTF-8"?>
<gpx
version="1.1"
creator="Kashmir3D 9.350 - http://www.kashmir3d.com"
xmlns:xsi="http://www.w3.org/2001/XMLSchema-instance"
xmlns="http://www.topografix.com/GPX/1/1"
xmlns:kashmir3d="http://www.kashmir3d.com/namespace/kashmir3d"
xsi:schemaLocation="http://www.topografix.com/GPX/1/1 http://www.topografix.com/GPX/1/1/gpx.xsd
	http://www.kashmir3d.com/namespace/kashmir3d http://www.kashmir3d.com/namespace/kashmir3d.xsd">
<trk>
 <name>MIKAMIYAMA.KML(三上山)</name>
 <number>1</number>
 <extensions>
 <kashmir3d:line_color>0000ff</kashmir3d:line_color>
 <kashmir3d:line_size>3</kashmir3d:line_size>
 <kashmir3d:line_style>1</kashmir3d:line_style>
 <kashmir3d:icon>901001</kashmir3d:icon>
 </extensions>
<trkseg>
<trkpt lat="35.048609" lon="136.027275">
 <ele>106.6</ele>
 <time>2020-03-24T13:38:21Z</time>
</trkpt>
<trkpt lat="35.048600" lon="136.027382">
 <ele>106.7</ele>
 <time>2020-03-24T13:38:21Z</time>
</trkpt>
<trkpt lat="35.049004" lon="136.027672">
 <ele>105.9</ele>
 <time>2020-03-24T13:38:21Z</time>
</trkpt>
<trkpt lat="35.049004" lon="136.027768">
 <ele>105.6</ele>
 <time>2020-03-24T13:38:21Z</time>
</trkpt>
<trkpt lat="35.048866" lon="136.028069">
 <ele>105.2</ele>
 <time>2020-03-24T13:38:21Z</time>
</trkpt>
<trkpt lat="35.048781" lon="136.028337">
 <ele>105.4</ele>
 <time>2020-03-24T13:38:21Z</time>
</trkpt>
<trkpt lat="35.048626" lon="136.028605">
 <ele>105.3</ele>
 <time>2020-03-24T13:38:21Z</time>
</trkpt>
<trkpt lat="35.048609" lon="136.028702">
 <ele>105.5</ele>
 <time>2020-03-24T13:38:21Z</time>
</trkpt>
<trkpt lat="35.048695" lon="136.028906">
 <ele>105.5</ele>
 <time>2020-03-24T13:38:21Z</time>
</trkpt>
<trkpt lat="35.048806" lon="136.029013">
 <ele>105.6</ele>
 <time>2020-03-24T13:38:21Z</time>
</trkpt>
<trkpt lat="35.049012" lon="136.029120">
 <ele>105.5</ele>
 <time>2020-03-24T13:38:22Z</time>
</trkpt>
<trkpt lat="35.049235" lon="136.029260">
 <ele>105.3</ele>
 <time>2020-03-24T13:38:22Z</time>
</trkpt>
<trkpt lat="35.049544" lon="136.029442">
 <ele>105.2</ele>
 <time>2020-03-24T13:38:22Z</time>
</trkpt>
<trkpt lat="35.049750" lon="136.029592">
 <ele>105.3</ele>
 <time>2020-03-24T13:38:22Z</time>
</trkpt>
<trkpt lat="35.049956" lon="136.029635">
 <ele>105.2</ele>
 <time>2020-03-24T13:38:22Z</time>
</trkpt>
<trkpt lat="35.050162" lon="136.029614">
 <ele>105.2</ele>
 <time>2020-03-24T13:38:22Z</time>
</trkpt>
<trkpt lat="35.050334" lon="136.029560">
 <ele>105.1</ele>
 <time>2020-03-24T13:38:22Z</time>
</trkpt>
<trkpt lat="35.050420" lon="136.029571">
 <ele>104.7</ele>
 <time>2020-03-24T13:38:22Z</time>
</trkpt>
<trkpt lat="35.050566" lon="136.029657">
 <ele>104.7</ele>
 <time>2020-03-24T13:38:22Z</time>
</trkpt>
<trkpt lat="35.050557" lon="136.029796">
 <ele>107.3</ele>
 <time>2020-03-24T13:38:22Z</time>
</trkpt>
<trkpt lat="35.050583" lon="136.029860">
 <ele>111.2</ele>
 <time>2020-03-24T13:38:23Z</time>
</trkpt>
<trkpt lat="35.050617" lon="136.029936">
 <ele>116.5</ele>
 <time>2020-03-24T13:38:23Z</time>
</trkpt>
<trkpt lat="35.050643" lon="136.030107">
 <ele>124.4</ele>
 <time>2020-03-24T13:38:23Z</time>
</trkpt>
<trkpt lat="35.050660" lon="136.030236">
 <ele>128.9</ele>
 <time>2020-03-24T13:38:23Z</time>
</trkpt>
<trkpt lat="35.050677" lon="136.030354">
 <ele>131</ele>
 <time>2020-03-24T13:38:23Z</time>
</trkpt>
<trkpt lat="35.050703" lon="136.030451">
 <ele>136.2</ele>
 <time>2020-03-24T13:38:23Z</time>
</trkpt>
<trkpt lat="35.050763" lon="136.030536">
 <ele>141.9</ele>
 <time>2020-03-24T13:38:23Z</time>
</trkpt>
<trkpt lat="35.050832" lon="136.030676">
 <ele>147.8</ele>
 <time>2020-03-24T13:38:23Z</time>
</trkpt>
<trkpt lat="35.050918" lon="136.030740">
 <ele>153.4</ele>
 <time>2020-03-24T13:38:23Z</time>
</trkpt>
<trkpt lat="35.050986" lon="136.030826">
 <ele>157.7</ele>
 <time>2020-03-24T13:38:24Z</time>
</trkpt>
<trkpt lat="35.051038" lon="136.030880">
 <ele>161.4</ele>
 <time>2020-03-24T13:38:24Z</time>
</trkpt>
<trkpt lat="35.051055" lon="136.030944">
 <ele>163.7</ele>
 <time>2020-03-24T13:38:24Z</time>
</trkpt>
<trkpt lat="35.051055" lon="136.031148">
 <ele>168.9</ele>
 <time>2020-03-24T13:38:24Z</time>
</trkpt>
<trkpt lat="35.051064" lon="136.031363">
 <ele>170.2</ele>
 <time>2020-03-24T13:38:24Z</time>
</trkpt>
<trkpt lat="35.051055" lon="136.031491">
 <ele>170.7</ele>
 <time>2020-03-24T13:38:24Z</time>
</trkpt>
<trkpt lat="35.051021" lon="136.031631">
 <ele>172.9</ele>
 <time>2020-03-24T13:38:24Z</time>
</trkpt>
<trkpt lat="35.051004" lon="136.031738">
 <ele>176.1</ele>
 <time>2020-03-24T13:38:24Z</time>
</trkpt>
<trkpt lat="35.051004" lon="136.031792">
 <ele>178.1</ele>
 <time>2020-03-24T13:38:24Z</time>
</trkpt>
<trkpt lat="35.051089" lon="136.031878">
 <ele>180.9</ele>
 <time>2020-03-24T13:38:24Z</time>
</trkpt>
<trkpt lat="35.051158" lon="136.031920">
 <ele>182.4</ele>
 <time>2020-03-24T13:38:25Z</time>
</trkpt>
<trkpt lat="35.051252" lon="136.031910">
 <ele>182</ele>
 <time>2020-03-24T13:38:25Z</time>
</trkpt>
<trkpt lat="35.051321" lon="136.031920">
 <ele>181.5</ele>
 <time>2020-03-24T13:38:25Z</time>
</trkpt>
<trkpt lat="35.051373" lon="136.032006">
 <ele>183.5</ele>
 <time>2020-03-24T13:38:25Z</time>
</trkpt>
<trkpt lat="35.051407" lon="136.032071">
 <ele>184.4</ele>
 <time>2020-03-24T13:38:25Z</time>
</trkpt>
<trkpt lat="35.051450" lon="136.032103">
 <ele>185.4</ele>
 <time>2020-03-24T13:38:25Z</time>
</trkpt>
<trkpt lat="35.051510" lon="136.032156">
 <ele>186.2</ele>
 <time>2020-03-24T13:38:25Z</time>
</trkpt>
<trkpt lat="35.051579" lon="136.032210">
 <ele>188.3</ele>
 <time>2020-03-24T13:38:26Z</time>
</trkpt>
<trkpt lat="35.051579" lon="136.032274">
 <ele>189.6</ele>
 <time>2020-03-24T13:38:26Z</time>
</trkpt>
<trkpt lat="35.051519" lon="136.032360">
 <ele>193</ele>
 <time>2020-03-24T13:38:26Z</time>
</trkpt>
<trkpt lat="35.051450" lon="136.032511">
 <ele>199.7</ele>
 <time>2020-03-24T13:38:26Z</time>
</trkpt>
<trkpt lat="35.051398" lon="136.032543">
 <ele>199.7</ele>
 <time>2020-03-24T13:38:26Z</time>
</trkpt>
<trkpt lat="35.051381" lon="136.032629">
 <ele>203</ele>
 <time>2020-03-24T13:38:26Z</time>
</trkpt>
<trkpt lat="35.051390" lon="136.032714">
 <ele>205.9</ele>
 <time>2020-03-24T13:38:26Z</time>
</trkpt>
<trkpt lat="35.051390" lon="136.032789">
 <ele>208.9</ele>
 <time>2020-03-24T13:38:27Z</time>
</trkpt>
<trkpt lat="35.051398" lon="136.032907">
 <ele>213.7</ele>
 <time>2020-03-24T13:38:27Z</time>
</trkpt>
<trkpt lat="35.051398" lon="136.032993">
 <ele>217.1</ele>
 <time>2020-03-24T13:38:27Z</time>
</trkpt>
<trkpt lat="35.051398" lon="136.033079">
 <ele>220.6</ele>
 <time>2020-03-24T13:38:27Z</time>
</trkpt>
<trkpt lat="35.051407" lon="136.033176">
 <ele>225.3</ele>
 <time>2020-03-24T13:38:27Z</time>
</trkpt>
<trkpt lat="35.051390" lon="136.033251">
 <ele>230.4</ele>
 <time>2020-03-24T13:38:27Z</time>
</trkpt>
<trkpt lat="35.051390" lon="136.033304">
 <ele>232.4</ele>
 <time>2020-03-24T13:38:27Z</time>
</trkpt>
<trkpt lat="35.051373" lon="136.033369">
 <ele>236.3</ele>
 <time>2020-03-24T13:38:27Z</time>
</trkpt>
<trkpt lat="35.051330" lon="136.033455">
 <ele>240.2</ele>
 <time>2020-03-24T13:38:28Z</time>
</trkpt>
<trkpt lat="35.051313" lon="136.033508">
 <ele>241.8</ele>
 <time>2020-03-24T13:38:28Z</time>
</trkpt>
<trkpt lat="35.051330" lon="136.033551">
 <ele>243</ele>
 <time>2020-03-24T13:38:28Z</time>
</trkpt>
<trkpt lat="35.051355" lon="136.033616">
 <ele>244.3</ele>
 <time>2020-03-24T13:38:28Z</time>
</trkpt>
<trkpt lat="35.051416" lon="136.033680">
 <ele>246.6</ele>
 <time>2020-03-24T13:38:28Z</time>
</trkpt>
<trkpt lat="35.051450" lon="136.033766">
 <ele>248.6</ele>
 <time>2020-03-24T13:38:28Z</time>
</trkpt>
<trkpt lat="35.051450" lon="136.033948">
 <ele>252.5</ele>
 <time>2020-03-24T13:38:28Z</time>
</trkpt>
<trkpt lat="35.051424" lon="136.033991">
 <ele>254.4</ele>
 <time>2020-03-24T13:38:28Z</time>
</trkpt>
<trkpt lat="35.051416" lon="136.034077">
 <ele>256</ele>
 <time>2020-03-24T13:38:29Z</time>
</trkpt>
<trkpt lat="35.051407" lon="136.034120">
 <ele>256.6</ele>
 <time>2020-03-24T13:38:29Z</time>
</trkpt>
<trkpt lat="35.051407" lon="136.034206">
 <ele>258.3</ele>
 <time>2020-03-24T13:38:29Z</time>
</trkpt>
<trkpt lat="35.051407" lon="136.034420">
 <ele>263.1</ele>
 <time>2020-03-24T13:38:29Z</time>
</trkpt>
<trkpt lat="35.051355" lon="136.034570">
 <ele>270.5</ele>
 <time>2020-03-24T13:38:29Z</time>
</trkpt>
<trkpt lat="35.051287" lon="136.034699">
 <ele>275.1</ele>
 <time>2020-03-24T13:38:29Z</time>
</trkpt>
<trkpt lat="35.051227" lon="136.034806">
 <ele>277.9</ele>
 <time>2020-03-24T13:38:29Z</time>
</trkpt>
<trkpt lat="35.051158" lon="136.034882">
 <ele>282.7</ele>
 <time>2020-03-24T13:38:29Z</time>
</trkpt>
<trkpt lat="35.051072" lon="136.034957">
 <ele>287.7</ele>
 <time>2020-03-24T13:38:30Z</time>
</trkpt>
<trkpt lat="35.050995" lon="136.034989">
 <ele>286.4</ele>
 <time>2020-03-24T13:38:30Z</time>
</trkpt>
<trkpt lat="35.050943" lon="136.035064">
 <ele>288.8</ele>
 <time>2020-03-24T13:38:30Z</time>
</trkpt>
<trkpt lat="35.050935" lon="136.035203">
 <ele>294.4</ele>
 <time>2020-03-24T13:38:30Z</time>
</trkpt>
<trkpt lat="35.050926" lon="136.035321">
 <ele>302.3</ele>
 <time>2020-03-24T13:38:30Z</time>
</trkpt>
<trkpt lat="35.050909" lon="136.035450">
 <ele>307.7</ele>
 <time>2020-03-24T13:38:30Z</time>
</trkpt>
<trkpt lat="35.050883" lon="136.035579">
 <ele>312.5</ele>
 <time>2020-03-24T13:38:30Z</time>
</trkpt>
<trkpt lat="35.050849" lon="136.035708">
 <ele>318.1</ele>
 <time>2020-03-24T13:38:31Z</time>
</trkpt>
<trkpt lat="35.050832" lon="136.035772">
 <ele>322.3</ele>
 <time>2020-03-24T13:38:31Z</time>
</trkpt>
<trkpt lat="35.050823" lon="136.035847">
 <ele>324.9</ele>
 <time>2020-03-24T13:38:31Z</time>
</trkpt>
<trkpt lat="35.050823" lon="136.036083">
 <ele>345.4</ele>
 <time>2020-03-24T13:38:31Z</time>
</trkpt>
<trkpt lat="35.050815" lon="136.036233">
 <ele>355.9</ele>
 <time>2020-03-24T13:38:31Z</time>
</trkpt>
<trkpt lat="35.050840" lon="136.036298">
 <ele>360.1</ele>
 <time>2020-03-24T13:38:31Z</time>
</trkpt>
<trkpt lat="35.050806" lon="136.036469">
 <ele>376.9</ele>
 <time>2020-03-24T13:38:31Z</time>
</trkpt>
<trkpt lat="35.050772" lon="136.036587">
 <ele>388.5</ele>
 <time>2020-03-24T13:38:31Z</time>
</trkpt>
<trkpt lat="35.050695" lon="136.036738">
 <ele>398</ele>
 <time>2020-03-24T13:38:32Z</time>
</trkpt>
<trkpt lat="35.050643" lon="136.036823">
 <ele>403.6</ele>
 <time>2020-03-24T13:38:32Z</time>
</trkpt>
<trkpt lat="35.050566" lon="136.036942">
 <ele>411.1</ele>
 <time>2020-03-24T13:38:32Z</time>
</trkpt>
<trkpt lat="35.050489" lon="136.037145">
 <ele>416.7</ele>
 <time>2020-03-24T13:38:32Z</time>
</trkpt>
<trkpt lat="35.050454" lon="136.037242">
 <ele>418.8</ele>
 <time>2020-03-24T13:38:32Z</time>
</trkpt>
<trkpt lat="35.050446" lon="136.037349">
 <ele>421</ele>
 <time>2020-03-24T13:38:32Z</time>
</trkpt>
<trkpt lat="35.050497" lon="136.037489">
 <ele>426.2</ele>
 <time>2020-03-24T13:38:32Z</time>
</trkpt>
<trkpt lat="35.050583" lon="136.037639">
 <ele>429.6</ele>
 <time>2020-03-24T13:38:32Z</time>
</trkpt>
<trkpt lat="35.050497" lon="136.037489">
 <ele>426.2</ele>
 <time>2020-03-24T13:38:33Z</time>
</trkpt>
<trkpt lat="35.050446" lon="136.037349">
 <ele>421</ele>
 <time>2020-03-24T13:38:33Z</time>
</trkpt>
<trkpt lat="35.050454" lon="136.037242">
 <ele>418.8</ele>
 <time>2020-03-24T13:38:33Z</time>
</trkpt>
<trkpt lat="35.050489" lon="136.037145">
 <ele>416.7</ele>
 <time>2020-03-24T13:38:33Z</time>
</trkpt>
<trkpt lat="35.050566" lon="136.036942">
 <ele>411.1</ele>
 <time>2020-03-24T13:38:33Z</time>
</trkpt>
<trkpt lat="35.050643" lon="136.036823">
 <ele>403.6</ele>
 <time>2020-03-24T13:38:33Z</time>
</trkpt>
<trkpt lat="35.050695" lon="136.036738">
 <ele>398</ele>
 <time>2020-03-24T13:38:33Z</time>
</trkpt>
<trkpt lat="35.050772" lon="136.036587">
 <ele>388.5</ele>
 <time>2020-03-24T13:38:34Z</time>
</trkpt>
<trkpt lat="35.050806" lon="136.036469">
 <ele>376.9</ele>
 <time>2020-03-24T13:38:34Z</time>
</trkpt>
<trkpt lat="35.050840" lon="136.036298">
 <ele>360.1</ele>
 <time>2020-03-24T13:38:34Z</time>
</trkpt>
<trkpt lat="35.050815" lon="136.036233">
 <ele>355.9</ele>
 <time>2020-03-24T13:38:34Z</time>
</trkpt>
<trkpt lat="35.050823" lon="136.036083">
 <ele>345.4</ele>
 <time>2020-03-24T13:38:34Z</time>
</trkpt>
<trkpt lat="35.050823" lon="136.035847">
 <ele>324.9</ele>
 <time>2020-03-24T13:38:34Z</time>
</trkpt>
<trkpt lat="35.050832" lon="136.035772">
 <ele>322.3</ele>
 <time>2020-03-24T13:38:34Z</time>
</trkpt>
<trkpt lat="35.050849" lon="136.035708">
 <ele>318.1</ele>
 <time>2020-03-24T13:38:34Z</time>
</trkpt>
<trkpt lat="35.050883" lon="136.035579">
 <ele>312.5</ele>
 <time>2020-03-24T13:38:35Z</time>
</trkpt>
<trkpt lat="35.050909" lon="136.035450">
 <ele>307.7</ele>
 <time>2020-03-24T13:38:35Z</time>
</trkpt>
<trkpt lat="35.050926" lon="136.035321">
 <ele>302.3</ele>
 <time>2020-03-24T13:38:35Z</time>
</trkpt>
<trkpt lat="35.050935" lon="136.035203">
 <ele>294.4</ele>
 <time>2020-03-24T13:38:35Z</time>
</trkpt>
<trkpt lat="35.050943" lon="136.035064">
 <ele>288.8</ele>
 <time>2020-03-24T13:38:35Z</time>
</trkpt>
<trkpt lat="35.050995" lon="136.034989">
 <ele>286.4</ele>
 <time>2020-03-24T13:38:35Z</time>
</trkpt>
<trkpt lat="35.051072" lon="136.034957">
 <ele>287.7</ele>
 <time>2020-03-24T13:38:35Z</time>
</trkpt>
<trkpt lat="35.051158" lon="136.034882">
 <ele>282.7</ele>
 <time>2020-03-24T13:38:35Z</time>
</trkpt>
<trkpt lat="35.051227" lon="136.034806">
 <ele>277.9</ele>
 <time>2020-03-24T13:38:36Z</time>
</trkpt>
<trkpt lat="35.051287" lon="136.034699">
 <ele>275.1</ele>
 <time>2020-03-24T13:38:36Z</time>
</trkpt>
<trkpt lat="35.051355" lon="136.034570">
 <ele>270.5</ele>
 <time>2020-03-24T13:38:36Z</time>
</trkpt>
<trkpt lat="35.051407" lon="136.034420">
 <ele>263.1</ele>
 <time>2020-03-24T13:38:36Z</time>
</trkpt>
<trkpt lat="35.051407" lon="136.034206">
 <ele>258.3</ele>
 <time>2020-03-24T13:38:36Z</time>
</trkpt>
<trkpt lat="35.051407" lon="136.034120">
 <ele>256.6</ele>
 <time>2020-03-24T13:38:36Z</time>
</trkpt>
<trkpt lat="35.051416" lon="136.034077">
 <ele>256</ele>
 <time>2020-03-24T13:38:36Z</time>
</trkpt>
<trkpt lat="35.051424" lon="136.033991">
 <ele>254.4</ele>
 <time>2020-03-24T13:38:37Z</time>
</trkpt>
<trkpt lat="35.051450" lon="136.033948">
 <ele>252.5</ele>
 <time>2020-03-24T13:38:37Z</time>
</trkpt>
<trkpt lat="35.051450" lon="136.033766">
 <ele>248.6</ele>
 <time>2020-03-24T13:38:37Z</time>
</trkpt>
<trkpt lat="35.051416" lon="136.033680">
 <ele>246.6</ele>
 <time>2020-03-24T13:38:37Z</time>
</trkpt>
<trkpt lat="35.051355" lon="136.033616">
 <ele>244.3</ele>
 <time>2020-03-24T13:38:37Z</time>
</trkpt>
<trkpt lat="35.051330" lon="136.033551">
 <ele>243</ele>
 <time>2020-03-24T13:38:37Z</time>
</trkpt>
<trkpt lat="35.051313" lon="136.033508">
 <ele>241.8</ele>
 <time>2020-03-24T13:38:37Z</time>
</trkpt>
<trkpt lat="35.051330" lon="136.033455">
 <ele>240.2</ele>
 <time>2020-03-24T13:38:37Z</time>
</trkpt>
<trkpt lat="35.051373" lon="136.033369">
 <ele>236.3</ele>
 <time>2020-03-24T13:38:38Z</time>
</trkpt>
<trkpt lat="35.051390" lon="136.033304">
 <ele>232.4</ele>
 <time>2020-03-24T13:38:38Z</time>
</trkpt>
<trkpt lat="35.051390" lon="136.033251">
 <ele>230.4</ele>
 <time>2020-03-24T13:38:38Z</time>
</trkpt>
<trkpt lat="35.051407" lon="136.033176">
 <ele>225.3</ele>
 <time>2020-03-24T13:38:38Z</time>
</trkpt>
<trkpt lat="35.051398" lon="136.033079">
 <ele>220.6</ele>
 <time>2020-03-24T13:38:38Z</time>
</trkpt>
<trkpt lat="35.051398" lon="136.032993">
 <ele>217.1</ele>
 <time>2020-03-24T13:38:38Z</time>
</trkpt>
<trkpt lat="35.051398" lon="136.032907">
 <ele>213.7</ele>
 <time>2020-03-24T13:38:38Z</time>
</trkpt>
<trkpt lat="35.051390" lon="136.032789">
 <ele>208.9</ele>
 <time>2020-03-24T13:38:38Z</time>
</trkpt>
<trkpt lat="35.051390" lon="136.032714">
 <ele>205.9</ele>
 <time>2020-03-24T13:38:39Z</time>
</trkpt>
<trkpt lat="35.051381" lon="136.032629">
 <ele>203</ele>
 <time>2020-03-24T13:38:39Z</time>
</trkpt>
<trkpt lat="35.051398" lon="136.032543">
 <ele>199.7</ele>
 <time>2020-03-24T13:38:39Z</time>
</trkpt>
<trkpt lat="35.051450" lon="136.032511">
 <ele>199.7</ele>
 <time>2020-03-24T13:38:39Z</time>
</trkpt>
<trkpt lat="35.051519" lon="136.032360">
 <ele>193</ele>
 <time>2020-03-24T13:38:39Z</time>
</trkpt>
<trkpt lat="35.051579" lon="136.032274">
 <ele>189.6</ele>
 <time>2020-03-24T13:38:39Z</time>
</trkpt>
<trkpt lat="35.051579" lon="136.032210">
 <ele>188.3</ele>
 <time>2020-03-24T13:38:39Z</time>
</trkpt>
<trkpt lat="35.051510" lon="136.032156">
 <ele>186.2</ele>
 <time>2020-03-24T13:38:40Z</time>
</trkpt>
<trkpt lat="35.051450" lon="136.032103">
 <ele>185.4</ele>
 <time>2020-03-24T13:38:40Z</time>
</trkpt>
<trkpt lat="35.051407" lon="136.032071">
 <ele>184.4</ele>
 <time>2020-03-24T13:38:40Z</time>
</trkpt>
<trkpt lat="35.051373" lon="136.032006">
 <ele>183.5</ele>
 <time>2020-03-24T13:38:40Z</time>
</trkpt>
<trkpt lat="35.051321" lon="136.031920">
 <ele>181.5</ele>
 <time>2020-03-24T13:38:40Z</time>
</trkpt>
<trkpt lat="35.051252" lon="136.031910">
 <ele>182</ele>
 <time>2020-03-24T13:38:40Z</time>
</trkpt>
<trkpt lat="35.051158" lon="136.031920">
 <ele>182.4</ele>
 <time>2020-03-24T13:38:40Z</time>
</trkpt>
<trkpt lat="35.051089" lon="136.031878">
 <ele>180.9</ele>
 <time>2020-03-24T13:38:40Z</time>
</trkpt>
<trkpt lat="35.051004" lon="136.031792">
 <ele>178.1</ele>
 <time>2020-03-24T13:38:41Z</time>
</trkpt>
<trkpt lat="35.051004" lon="136.031738">
 <ele>176.1</ele>
 <time>2020-03-24T13:38:41Z</time>
</trkpt>
<trkpt lat="35.051021" lon="136.031631">
 <ele>172.9</ele>
 <time>2020-03-24T13:38:41Z</time>
</trkpt>
<trkpt lat="35.051055" lon="136.031491">
 <ele>170.7</ele>
 <time>2020-03-24T13:38:41Z</time>
</trkpt>
<trkpt lat="35.051064" lon="136.031363">
 <ele>170.2</ele>
 <time>2020-03-24T13:38:41Z</time>
</trkpt>
<trkpt lat="35.051055" lon="136.031148">
 <ele>168.9</ele>
 <time>2020-03-24T13:38:41Z</time>
</trkpt>
<trkpt lat="35.051055" lon="136.030944">
 <ele>163.7</ele>
 <time>2020-03-24T13:38:41Z</time>
</trkpt>
<trkpt lat="35.051038" lon="136.030880">
 <ele>161.4</ele>
 <time>2020-03-24T13:38:41Z</time>
</trkpt>
<trkpt lat="35.050986" lon="136.030826">
 <ele>157.7</ele>
 <time>2020-03-24T13:38:41Z</time>
</trkpt>
<trkpt lat="35.050918" lon="136.030740">
 <ele>153.4</ele>
 <time>2020-03-24T13:38:41Z</time>
</trkpt>
<trkpt lat="35.050832" lon="136.030676">
 <ele>147.8</ele>
 <time>2020-03-24T13:38:42Z</time>
</trkpt>
<trkpt lat="35.050763" lon="136.030536">
 <ele>141.9</ele>
 <time>2020-03-24T13:38:42Z</time>
</trkpt>
<trkpt lat="35.050703" lon="136.030451">
 <ele>136.2</ele>
 <time>2020-03-24T13:38:42Z</time>
</trkpt>
<trkpt lat="35.050677" lon="136.030354">
 <ele>131</ele>
 <time>2020-03-24T13:38:42Z</time>
</trkpt>
<trkpt lat="35.050660" lon="136.030236">
 <ele>128.9</ele>
 <time>2020-03-24T13:38:42Z</time>
</trkpt>
<trkpt lat="35.050643" lon="136.030107">
 <ele>124.4</ele>
 <time>2020-03-24T13:38:42Z</time>
</trkpt>
<trkpt lat="35.050617" lon="136.029936">
 <ele>116.5</ele>
 <time>2020-03-24T13:38:42Z</time>
</trkpt>
<trkpt lat="35.050583" lon="136.029860">
 <ele>111.2</ele>
 <time>2020-03-24T13:38:42Z</time>
</trkpt>
<trkpt lat="35.050557" lon="136.029796">
 <ele>107.3</ele>
 <time>2020-03-24T13:38:42Z</time>
</trkpt>
<trkpt lat="35.050566" lon="136.029657">
 <ele>104.7</ele>
 <time>2020-03-24T13:38:42Z</time>
</trkpt>
<trkpt lat="35.050420" lon="136.029571">
 <ele>104.7</ele>
 <time>2020-03-24T13:38:43Z</time>
</trkpt>
<trkpt lat="35.050334" lon="136.029560">
 <ele>105.1</ele>
 <time>2020-03-24T13:38:43Z</time>
</trkpt>
<trkpt lat="35.050162" lon="136.029614">
 <ele>105.2</ele>
 <time>2020-03-24T13:38:43Z</time>
</trkpt>
<trkpt lat="35.049956" lon="136.029635">
 <ele>105.2</ele>
 <time>2020-03-24T13:38:43Z</time>
</trkpt>
<trkpt lat="35.049750" lon="136.029592">
 <ele>105.3</ele>
 <time>2020-03-24T13:38:43Z</time>
</trkpt>
<trkpt lat="35.049544" lon="136.029442">
 <ele>105.2</ele>
 <time>2020-03-24T13:38:43Z</time>
</trkpt>
<trkpt lat="35.049235" lon="136.029260">
 <ele>105.3</ele>
 <time>2020-03-24T13:38:43Z</time>
</trkpt>
<trkpt lat="35.049012" lon="136.029120">
 <ele>105.5</ele>
 <time>2020-03-24T13:38:43Z</time>
</trkpt>
<trkpt lat="35.048806" lon="136.029013">
 <ele>105.6</ele>
 <time>2020-03-24T13:38:43Z</time>
</trkpt>
<trkpt lat="35.048695" lon="136.028906">
 <ele>105.5</ele>
 <time>2020-03-24T13:38:43Z</time>
</trkpt>
<trkpt lat="35.048609" lon="136.028702">
 <ele>105.5</ele>
 <time>2020-03-24T13:38:44Z</time>
</trkpt>
<trkpt lat="35.048626" lon="136.028605">
 <ele>105.3</ele>
 <time>2020-03-24T13:38:44Z</time>
</trkpt>
<trkpt lat="35.048781" lon="136.028337">
 <ele>105.4</ele>
 <time>2020-03-24T13:38:44Z</time>
</trkpt>
<trkpt lat="35.048866" lon="136.028069">
 <ele>105.2</ele>
 <time>2020-03-24T13:38:44Z</time>
</trkpt>
<trkpt lat="35.049004" lon="136.027768">
 <ele>105.6</ele>
 <time>2020-03-24T13:38:44Z</time>
</trkpt>
<trkpt lat="35.049004" lon="136.027672">
 <ele>105.9</ele>
 <time>2020-03-24T13:38:44Z</time>
</trkpt>
<trkpt lat="35.048600" lon="136.027382">
 <ele>106.7</ele>
 <time>2020-03-24T13:38:44Z</time>
</trkpt>
<trkpt lat="35.048609" lon="136.027275">
 <ele>106.6</ele>
 <time>2020-03-24T13:38:44Z</time>
</trkpt>
</trkseg>
</trk>
</gpx>

